Regional Weather Roundup
Issued by NWS

Home | Current Version | Previous Version | Text Only | Print | Product List | Glossary On
Versions: 1 2 3 4 5 6 7 8 9 10 11 12 13 14 15 16 17 18 19 20 21 22 23 24 25 26 27 28 29 30 31 32 33 34 35 36 37 38 39 40 41 42 43 44 45 46 47 48 49 50
000
ASUS43 KTOP 020808
RWRKS

WEATHER ROUNDUP FOR KANSAS
NATIONAL WEATHER SERVICE GOODLAND KS
300 AM CDT THU JUL 02 2015

NOTE:  "FAIR" INDICATES FEW OR NO CLOUDS BELOW 12,000 FEET WITH NO
SIGNIFICANT WEATHER AND/OR OBSTRUCTIONS TO VISIBILITY.

KSZ001>006-013>018-027>032-041>047-020900-
NORTHWEST KANSAS

CITY           SKY/WX    TMP DP  RH WIND       PRES   REMARKS
GOODLAND       PTCLDY    64  59  83 N8        30.01S
HAYS           MOCLDY    73  63  68 E5        29.88F
HILL CITY      CLOUDY    72  64  76 N6        29.92R
RUSSELL        MOCLDY    71  69  93 NE8       29.85F
$$

KSZ061>065-074>080-084>089-020900-
SOUTHWEST KANSAS

CITY           SKY/WX    TMP DP  RH WIND       PRES   REMARKS
DODGE CITY     MOCLDY    72  57  59 SW7       29.91F
ELKHART          N/A     69  58  68 W20         N/A
GARDEN CITY    CLOUDY    73  58  59 NW3       29.94F
GREAT BEND     MOCLDY    72  64  78 CALM      29.88S
LIBERAL        CLOUDY    75  57  53 W10       29.97R
$$

KSZ066>073-081>083-090>101-020900-
SOUTHEAST KANSAS

CITY           SKY/WX    TMP DP  RH WIND       PRES   REMARKS
CHANUTE        PTCLDY    76  71  85 E9        29.80R
COFFEYVILLE    PTCLDY    82  69  64 S13       29.78R
HUTCHINSON     PTCLDY    75  69  81 NE8       29.85S
MEDICINE LODGE   N/A     73  61  65 S6        29.85R
NEWTON         PTCLDY    73  68  83 E7        29.87F
PARSONS        PTCLDY    79  71  76 VRB3      29.80R
WICHITA INTL   MOCLDY    78  72  81 NE12      29.83R
WICHITA JABRA  MOCLDY    74  72  93 NE7       29.84R
WICHITA MCCONL PTCLDY    76  72  86 NE9       29.83R
WINFIELD       MOCLDY    75  68  78 SW5       29.83R
$$

KSZ007>012-019>026-033>040-048>060-102>105-020900-
NORTHEAST KANSAS

CITY           SKY/WX    TMP DP  RH WIND       PRES   REMARKS
CONCORDIA      CLOUDY    73  70  90 E10G20    29.88R
EMPORIA        CLEAR     74  70  87 NE9       29.82F
LAWRENCE       CLEAR     74  70  87 E8        29.83S
MANHATTAN      LGT RAIN  76  71  85 E10       29.85S
MARYSVILLE     CLOUDY    72  70  94 E8        29.89R
OLATHE IND     CLEAR     71  69  93 NE6       29.85R
OLATHE EXE     MOCLDY    71  70  96 NE6       29.84R
SALINA         MOCLDY    78  71  79 E8        29.85S
TOPEKA BILLARD CLOUDY    76  71  85 NE6       29.84S
TOPEKA FORBES  CLOUDY    77  72  84 NE6       29.83F
$$


USA.gov is the U.S. government's official web portal to all federal, state and local government web resources and services.